www.pogodaiklimat.ru

Погода и климат >> Архив погоды >> Португалия >> Фару


ПОГОДА в Фару

  • Прогноз погоды в Фару
  • Монитор погоды в Фару

АРХИВ ПОГОДЫ в Фару

Время (UTC), дата Ветер
(напр.,м/с)
 
Видим.   Явления Облачность Т
(С)
Тd
(С)
f
(%)
Тe
(С)
Тes
(С)
Комфортность P
(гПа)
Po
(гПа)
Тmin
(С)
Tmax
(С)
R
(мм)
R24
(мм)
S
(см)
07 10.09 СЗ 4-6
{7}
н/о н/о +18.2 +13.1 72 +18 +18 1019.3 1018.4
08 10.09 З 4-8
{8}
н/о н/о +19.5 +13.5 68 +21 +21 комфорт 1019.6 1018.6
09 10.09 СЗ 8
{13}
н/о н/о +21.0 +13.1 61 +23 +23 комфорт 1019.7 1018.7
10 10.09 СЗ 9
{14}
н/о н/о +22.5 +12.0 51 +25 +25 комфорт 1019.1 1018.2
11 10.09 СЗ 6-10
{13}
н/о н/о +23.6 +5.7 31 +24 +24 комфорт 1019.2 1018.3
12 10.09 СЗ 7-11
{11}
н/о н/о +25.0 +5.1 28 +25 +25 комфорт 1018.8 1017.8
13 10.09 СЗ 6
{11}
н/о н/о +26.2 +6.5 28 +26 +26 жарко 1017.9 1017.0
14 10.09 СЗ 6
{10}
н/о н/о +26.9 +5.6 26 +26 +26 жарко 1017.4 1016.4
15 10.09 С 5-8
{12}
н/о н/о +27.3 +6.7 27 +27 +32 жарко 1017.1 1016.2
16 10.09 С 6-10
{12}
н/о н/о +27.8 +5.0 23 +27 +27 жарко 1016.7 1015.8
17 10.09 С 6-9
{10}
н/о н/о +27.2 +5.2 25 +26 +26 жарко 1016.8 1015.9
18 10.09 СЗ 7
{12}
н/о н/о +24.9 +10.2 40 +26 +26 жарко 1017.0 1016.1 +28.4
19 10.09 СЗ 7 н/о н/о +22.7 +9.7 44 +24 +24 комфорт 1017.4 1016.5
20 10.09 СЗ 6-10
{10}
н/о н/о +20.9 +10.4 51 +23 +23 комфорт 1018.4 1017.5
21 10.09 СЗ 6
{9}
н/о н/о +19.6 +10.4 55 +20 +20 1019.2 1018.2
22 10.09 СЗ 5
{8}
н/о н/о +19.3 +9.7 54 +20 +20 1019.5 1018.5
23 10.09 С 5-8
{10}
н/о н/о +20.0 +9.8 52 +21 +21 комфорт 1019.6 1018.7
00 11.09 С 4-8
{8}
н/о н/о +19.6 +9.2 51 +21 +21 комфорт 1019.4 1018.5
01 11.09 С 4
{7}
н/о н/о +19.1 +8.9 52 +20 +20 1019.2 1018.3
02 11.09 С 4-7
{9}
н/о н/о +19.2 +8.5 50 +20 +20 1018.9 1018.0
03 11.09 С 4
{9}
н/о н/о +19.8 +7.0 43 +21 +21 комфорт 1018.4 1017.5
04 11.09 С 5
{8}
н/о н/о +20.4 +6.4 40 +21 +21 комфорт 1018.0 1017.0
05 11.09 С 6-10
{11}
н/о н/о +20.7 +6.2 39 +21 +21 комфорт 1018.2 1017.2
06 11.09 С 5
{9}
н/о н/о +20.6 +6.3 39 +21 +21 комфорт 1018.9 1018.0 +18.9
07 11.09 СВ 6
{10}
н/о н/о +20.4 +7.3 43 +21 +21 комфорт 1019.8 1018.9
08 11.09 СВ 4-6
{9}
н/о н/о +22.5 +6.2 35 +23 +23 комфорт 1020.5 1019.6
09 11.09 В 6 н/о н/о +24.3 +6.5 32 +24 +27 комфорт 1021.1 1020.2
10 11.09 В 6
{10}
н/о н/о +24.9 +7.3 32 +25 +25 комфорт 1021.2 1020.3
11 11.09 ЮВ 5
{8}
н/о н/о +25.3 +7.8 33 +25 +25 комфорт 1020.8 1019.9
12 11.09 Ю 5 25 км 1/0
[Ci fib]
+24.2 +8.9 38 +25 +33 комфорт 1020.5 1019.6
13 11.09 ЮЗ 5 н/о н/о +24.1 +10.8 43 +25 +25 комфорт 1020.0 1019.0
14 11.09 ЮЗ 6 н/о н/о +23.8 +13.3 52 +26 +26 жарко 1019.5 1018.6
15 11.09 З 7 н/о н/о +24.4 +13.7 51 +27 +27 жарко 1019.3 1018.3
16 11.09 З 7 н/о н/о +23.5 +12.9 51 +26 +26 жарко 1018.9 1018.0
17 11.09 З 6
{9}
н/о н/о +23.4 +13.9 55 +27 +27 душно 1018.7 1017.8
18 11.09 З 7 н/о н/о +23.1 +13.6 55 +26 +26 жарко 1018.4 1017.5 +25.7
19 11.09 З 4
{8}
н/о н/о +21.9 +15.6 67 +26 +26 душно 1018.6 1017.6
20 11.09 С 3
{5}
н/о н/о +22.7 +14.3 59 +26 +26 жарко 1019.2 1018.2
21 11.09 С 3
{5}
н/о н/о +24.1 +7.7 35 +24 +24 комфорт 1019.7 1018.7
22 11.09 С 3
{5}
н/о н/о +24.9 +6.4 31 +25 +25 комфорт 1019.5 1018.6
23 11.09 С 3
{5}
н/о н/о +25.0 +7.2 32 +25 +25 комфорт 1019.1 1018.2
00 12.09 С 3
{5}
н/о н/о +25.1 +6.6 31 +25 +25 комфорт 1019.0 1018.1
01 12.09 СВ 5 н/о н/о +25.5 +7.0 31 +25 +25 комфорт 1019.2 1018.3
02 12.09 СВ 4
{7}
н/о н/о +24.9 +7.9 34 +25 +25 комфорт 1019.4 1018.5
03 12.09 В 6
{11}
н/о н/о +23.8 +10.6 43 +25 +25 комфорт 1019.8 1018.8
04 12.09 В 5
{9}
н/о н/о +22.8 +10.1 45 +25 +25 комфорт 1020.2 1019.3
05 12.09 СВ 7 н/о н/о +22.4 +8.6 41 +24 +24 комфорт 1020.6 1019.6
06 12.09 СВ 5
{9}
н/о н/о +21.7 +7.9 41 +23 +23 комфорт 1020.8 1019.9 +21.7
07 12.09 В 5
{9}
н/о н/о +21.9 +8.0 41 +23 +23 комфорт 1021.4 1020.5
08 12.09 В 2
{6}
н/о н/о +23.5 +7.9 37 +24 +24 комфорт 1021.4 1020.5
09 12.09 В 6
{9}
н/о н/о +25.5 +8.5 34 +26 +28 жарко 1021.7 1020.8
10 12.09 В 7 н/о н/о +26.7 +12.1 40 +28 +28 жарко 1021.5 1020.6
11 12.09 ЮВ 8 н/о н/о +26.0 +12.2 42 +27 +27 жарко 1021.2 1020.3
12 12.09 В 6
{10}
н/о н/о +26.3 +12.1 41 +28 +28 жарко 1021.2 1020.2
13 12.09 ЮВ 7 н/о н/о +26.4 +12.6 42 +28 +28 жарко 1021.0 1020.1
14 12.09 ЮВ 7 н/о н/о +26.1 +12.0 41 +27 +27 жарко 1020.9 1020.0
15 12.09 В 5
{8}
н/о н/о +25.9 +13.2 45 +28 +32 жарко 1020.5 1019.6
16 12.09 ЮВ 3
{6}
н/о н/о +25.6 +13.1 46 +28 +28 жарко 1020.6 1019.7
17 12.09 Ю 2
{5}
н/о н/о +24.8 +13.6 50 +27 +27 жарко 1020.8 1019.9
18 12.09 З 2
{6}
20 км 1/1 900 м
[Cu hum Ci fib]
+23.5 +13.3 53 +26 +26 жарко 1020.9 1020.0 +26.9
19 12.09 З 3 н/о н/о +22.5 +14.2 59 +26 +26 жарко 1021.0 1020.1
20 12.09 СЗ 3
{5}
н/о н/о +22.1 +14.9 64 +26 +26 душно 1021.2 1020.3
21 12.09 СЗ 3 н/о н/о +22.2 +14.3 61 +25 +25 комфорт 1021.5 1020.5
22 12.09 ЮЗ 2 н/о н/о +20.6 +14.8 69 +24 +24 комфорт 1021.4 1020.4
23 12.09 СЗ 2 н/о н/о +21.5 +14.8 66 +25 +25 комфорт 1021.3 1020.3
00 13.09 СЗ 2 25 км 4/0
[Ci fib]
+20.5 +13.4 64 +23 +23 комфорт 1020.8 1019.9
01 13.09 С 2 н/о н/о +21.2 +12.2 56 +23 +23 комфорт 1020.3 1019.4
02 13.09 СВ 4
{6}
н/о н/о +22.5 +13.4 56 +25 +25 комфорт 1020.4 1019.5
03 13.09 СВ 4
{7}
н/о н/о +22.5 +14.1 59 +26 +26 жарко 1020.1 1019.2
04 13.09 В 3
{5}
н/о н/о +21.7 +14.0 62 +25 +25 комфорт 1019.5 1018.5
05 13.09 С 1 н/о н/о +20.9 +13.7 63 +25 +25 комфорт 1019.4 1018.4
06 13.09 СВ 3
{5}
н/о н/о +21.3 +13.6 61 +24 +24 комфорт 1019.3 1018.4 +20.3
07 13.09 В 6 н/о н/о +22.2 +13.8 59 +25 +25 комфорт 1019.2 1018.3
08 13.09 В 4
{10}
н/о н/о +24.1 +13.1 50 +26 +26 жарко 1018.9 1018.0
09 13.09 В 7
{13}
н/о н/о +25.8 +12.4 43 +27 +29 жарко 1018.6 1017.6
10 13.09 В 6
{10}
н/о н/о +27.0 +12.4 40 +28 +28 жарко 1018.9 1018.0
11 13.09 В 11 н/о н/о +26.6 +14.8 48 +29 +29 жарко 1019.0 1018.1
12 13.09 В 8
{12}
20 км 4/1 900 м
[Cu hum Ci fib]
+26.6 +14.8 48 +29 +31 жарко 1018.7 1017.8
13 13.09 ЮВ 8 н/о н/о +26.1 +15.1 51 +29 +29 жарко 1018.7 1017.7
14 13.09 ЮВ 6
{10}
н/о н/о +25.6 +14.9 52 +28 +28 жарко 1018.5 1017.6
15 13.09 ЮВ 5 н/о н/о +25.8 +15.9 54 +29 +29 душно 1017.9 1017.0
16 13.09 ЮВ 4
{6}
н/о н/о +25.0 +16.9 61 +29 +29 душно 1017.9 1016.9
17 13.09
{5}
н/о н/о +24.8 +15.2 55 1018.0 1017.0
18 13.09 З 5 н/о н/о +23.9 +16.1 62 +27 +27 жарко 1018.6 1017.7 +27.9
19 13.09 З 3
{5}
н/о н/о +24.0 +15.4 59 +27 +27 жарко 1019.0 1018.1
20 13.09 З 3
{5}
н/о н/о +23.5 +16.2 64 +27 +27 душно 1019.1 1018.2
21 13.09 СЗ 2 н/о н/о +23.0 +15.4 62 +27 +27 душно 1019.3 1018.3
22 13.09 ЮЗ 1 н/о н/о +21.3 +16.1 72 +25 +25 комфорт 1019.2 1018.3
23 13.09 В 2 н/о н/о +21.3 +17.7 80 +25 +25 комфорт 1019.7 1018.8
00 14.09 В 1 20 км 3/0
[Ci fib]
+20.5 +16.9 80 +25 +25 комфорт 1019.4 1018.5
01 14.09 СВ 4 н/о н/о +22.2 +14.6 62 +26 +26 душно 1019.2 1018.3
02 14.09 СВ 4 н/о н/о +21.6 +14.1 62 +24 +24 комфорт 1018.5 1017.5
03 14.09 СВ 4 н/о н/о +21.5 +12.6 57 +24 +24 комфорт 1018.0 1017.1
04 14.09 СВ 3
{5}
н/о н/о +21.4 +12.4 56 +24 +24 комфорт 1017.8 1016.9
05 14.09 СВ 4 н/о н/о +22.1 +12.4 54 +25 +25 комфорт 1017.8 1016.8
06 14.09 СВ 3
{5}
н/о н/о +21.3 +12.7 58 +24 +24 комфорт 1017.9 1017.0 +20.4
07 14.09 СВ 3
{6}
н/о н/о +22.0 +12.7 56 +25 +25 комфорт 1018.1 1017.2
08 14.09 СВ 3
{5}
н/о н/о +24.4 +13.5 51 +27 +27 жарко 1018.4 1017.5
09 14.09 В 6
{10}
н/о н/о +25.7 +14.6 50 +28 +30 жарко 1018.6 1017.7
10 14.09 В 7 н/о н/о +26.3 +16.4 54 +30 +30 душно 1018.6 1017.7
11 14.09 В 6
{10}
н/о н/о +26.5 +17.8 59 +31 +31 душно 1018.7 1017.7
12 14.09 В 7 20 км 4/1 750 м
[Cu med, cong Ci fib]
+26.7 +18.0 59 +31 +35 душно 1018.3 1017.3
13 14.09 В 8 н/о н/о +26.5 +18.3 61 +31 +31 душно 1017.7 1016.8
14 14.09 В 7 н/о н/о +25.9 +18.2 63 +31 +31 очень
душно
1017.2 1016.3
15 14.09 ЮВ 5
{9}
н/о н/о +25.2 +18.8 68 +30 +30 душно 1017.3 1016.3
16 14.09 ЮВ 4
{7}
н/о н/о +26.5 +17.1 56 +30 +30 душно 1016.9 1016.0
17 14.09 Ю 3
{5}
н/о н/о +25.0 +18.5 67 +30 +30 душно 1017.5 1016.5
18 14.09 З 4 н/о н/о +24.2 +17.8 67 +28 +28 душно 1017.7 1016.7 +27.4
19 14.09 З 4
{6}
н/о н/о +23.1 +18.7 76 +29 +29 очень
душно
1018.1 1017.2
20 14.09 З 3
{6}
н/о н/о +22.9 +18.1 74 +28 +28 душно 1018.6 1017.7
21 14.09 З 3 н/о н/о +22.1 +19.3 84 +28 +28 душно 1019.2 1018.2
22 14.09 СЗ 2
{5}
н/о н/о +22.3 +19.3 83 +28 +28 душно 1018.9 1018.0
23 14.09 З 2
{5}
н/о н/о +21.7 +18.5 82 +26 +26 душно 1018.8 1017.8
00 15.09 СЗ 2 н/о н/о +21.9 +17.7 77 +26 +26 душно 1018.4 1017.5
01 15.09 СЗ 1 н/о н/о +21.2 +17.1 77 +25 +25 комфорт 1018.4 1017.4
02 15.09 СЗ 1 н/о н/о +20.4 +16.5 78 +25 +25 комфорт 1018.1 1017.2
03 15.09 С 1 н/о н/о +20.5 +15.9 75 +25 +25 комфорт 1017.9 1016.9
04 15.09 штиль 0 н/о н/о +21.0 +15.8 72 +24 +24 комфорт 1017.7 1016.8
05 15.09 штиль 0 н/о н/о +19.2 +15.6 80 +21 +21 комфорт 1018.1 1017.2
06 15.09 штиль 0 н/о н/о +19.6 +15.1 75 +21 +21 комфорт 1018.2 1017.2 +18.7
07 15.09 С 1 н/о н/о +21.0 +15.1 69 +25 +25 комфорт 1018.6 1017.6
08 15.09 С 1 н/о н/о +22.4 +17.5 74 +27 +27 душно 1019.0 1018.0
09 15.09 ЮЗ 2 20 км ясно +24.0 +17.8 68 +28 +34 душно 1019.3 1018.4
10 15.09 Ю 2 н/о н/о +24.4 +17.2 64 +28 +28 душно 1019.5 1018.6
11 15.09 Ю 3
{5}
н/о н/о +24.6 +17.5 65 +29 +29 душно 1019.7 1018.8
12 15.09 ЮЗ 4-5
{6}
20 км 1/1 750 м
[Cu med, cong]
+25.0 +18.3 66 +29 +38 душно 1019.3 1018.4
13 15.09 ЮЗ 4
{6}
н/о н/о +25.3 +16.8 59 +29 +29 душно 1019.0 1018.1
14 15.09 ЮЗ 4
{7}
н/о н/о +24.6 +17.2 63 +28 +28 душно 1018.6 1017.7
15 15.09 ЮЗ 5 н/о н/о +23.9 +18.7 73 +29 +33 душно 1018.2 1017.3
16 15.09 ЮЗ 5 н/о н/о +23.8 +19.8 78 +29 +29 душно 1018.2 1017.2
17 15.09 З 4
{6}
н/о н/о +23.1 +20.4 85 +30 +30 очень
душно
1018.1 1017.2
18 15.09 З 5 н/о н/о +22.3 +20.1 87 +28 +28 душно 1018.1 1017.2 +25.3
19 15.09 З 3
{6}
н/о н/о +21.6 +20.1 91 +27 +27 душно 1018.2 1017.3
20 15.09 З 2 н/о н/о +21.6 +19.7 89 +27 +27 душно 1018.6 1017.7
21 15.09 З 2 н/о н/о +21.3 +19.7 91 +26 +26 душно 1018.9 1018.0
22 15.09 З 1 н/о н/о +21.2 +19.9 92 +26 +26 душно 1018.9 1017.9
23 15.09 З 1 н/о н/о +20.8 +19.4 92 +26 +26 душно 1018.8 1017.8
00 16.09 СЗ 2 н/о н/о +20.7 +19.2 91 +26 +26 душно 1018.6 1017.7
01 16.09 СЗ 3 н/о н/о +20.9 +16.1 74 +25 +25 комфорт 1018.5 1017.6
02 16.09 З 2 н/о н/о +21.0 +15.7 72 +25 +25 комфорт 1018.2 1017.2
03 16.09 СЗ 2 н/о н/о +21.1 +14.7 67 +24 +24 комфорт 1017.9 1017.0
04 16.09 н/о н/о +20.5 +14.0 66 1017.6 1016.7
05 16.09 С 1 н/о н/о +19.6 +13.8 69 +22 +22 комфорт 1017.7 1016.8
06 16.09 СВ 2 н/о н/о +20.7 +14.5 68 +24 +24 комфорт 1018.2 1017.2 +18.9
07 16.09 СВ 2 н/о н/о +20.9 +17.0 78 +25 +25 комфорт 1018.4 1017.5
08 16.09 В 3 н/о н/о +22.8 +18.4 76 +28 +28 душно 1018.9 1018.0
09 16.09 ЮВ 3
{5}
н/о н/о +23.8 +18.8 74 +29 +33 душно 1019.6 1018.7
10 16.09 ЮВ 4-6
{6}
н/о н/о +24.4 +18.4 69 +29 +29 душно 1019.6 1018.7
11 16.09 Ю 4
{6}
н/о н/о +24.1 +17.9 68 +28 +28 душно 1019.6 1018.7
12 16.09 Ю 3
{5}
н/о н/о +24.9 +18.0 66 +29 +29 душно 1019.1 1018.2
13 16.09 Ю 4-6
{6}
н/о н/о +24.3 +18.1 68 +29 +29 душно 1018.8 1017.8
14 16.09 ЮЗ 4
{6}
н/о н/о +24.4 +18.1 68 +29 +29 душно 1018.2 1017.3
15 16.09 ЮЗ 4 н/о н/о +24.4 +17.3 65 +28 +34 душно 1017.7 1016.7
16 16.09 ЮЗ 4
{6}
н/о н/о +23.3 +18.1 73 +29 +29 душно 1017.5 1016.6
17 16.09 З 3
{5}
н/о н/о +22.8 +18.1 75 +28 +28 душно 1017.2 1016.3
18 16.09 З 3 н/о н/о +22.5 +18.3 77 +28 +28 душно 1017.2 1016.3 +25.3
19 16.09 З 2 н/о н/о +22.3 +19.0 82 +28 +28 душно 1017.2 1016.3
20 16.09 З 3 н/о н/о +22.6 +18.7 79 +28 +28 душно 1017.3 1016.4
21 16.09 СЗ 2 н/о н/о +22.1 +18.2 79 +27 +27 душно 1017.4 1016.4
22 16.09 З 2 н/о н/о +22.1 +17.8 77 +27 +27 душно 1017.2 1016.3
23 16.09 З 1 н/о н/о +21.5 +17.2 77 +26 +26 душно 1017.3 1016.4
00 17.09 штиль 0 18 км 5/0
[Ci sp]
+21.6 +17.2 76 +26 +26 душно 1016.8 1015.9
01 17.09 штиль 0 н/о н/о +20.7 +15.8 74 +24 +24 комфорт 1016.7 1015.8
02 17.09 В 1 н/о н/о +21.1 +16.8 76 +25 +25 комфорт 1016.2 1015.3
03 17.09 С 1 н/о н/о +20.3 +14.9 71 +24 +24 комфорт 1015.8 1014.9
04 17.09 СВ 1 н/о н/о +20.5 +14.6 69 +24 +24 комфорт 1015.6 1014.7
05 17.09 штиль 0 н/о н/о +19.0 +13.9 72 +20 +20 1015.6 1014.7
06 17.09 С 1 н/о н/о +19.2 +14.1 72 +22 +22 комфорт 1015.8 1014.9 +17.5

 

Местоположение метеостанции Фару (Португалия): широта 37.02 долгота -7.97 высота над уровнем моря 8 м.

В архиве по умолчанию представлена погода в Фару за последнюю неделю. Архивные данные за месяц целиком и за предыдущие месяцы, начиная с января 2011 года, Вы можете получить, выбрав интересующий диапазон дат из раскрывающегося списка и нажав кнопку "Ввод!".


*Определитесь, кто Вы:
робот инопланетянин человек

Внимание! Время в таблицах - всемирное. Для получения местного времени необходимо прибавить поправку, которая равна 0 ч.

Смотрите также архив погоды в соседних городах и на ближайших метеорологических станциях:

Погода в Айямонте - Исла Канель (Испания) (55 км)
Погода в Сагресе (Португалия) (87 км)
Погода в Уэльве (Испания) (97 км)
Погода в Эль-Ареносильо (Испания) (110 км)
Погода в Беже (Португалия) (112 км)
Погода в Бежа аэропорту (Португалия) (117 км)
Погода в Синише (Португалия) (130 км)
Погода в Алахар - Кабезо Молин (Испания) (149 км)
Погода в Кадисской бухте (Испания) (163 км)
Погода в Эворе (Португалия) (168 км)

Пояснения к столбцам:

Ветер - указаны скорость ветра в м/с - средняя за 10 мин, порывы в срок и между сроками (в фигурных скобках) и направление, откуда дует ветер: С - северный, СВ - северо-восточный, В - восточный, ЮВ - юго-восточный, Ю - южный, ЮЗ - юго-западный, З - западный, СЗ - северо-западный.
Видимость - горизонтальная дальность видимости в метрах или километрах. При видимости от 1 до 10 км при отсутствии осадков обычно наблюдается дымка, при ухудшении видимости до 1 км и менее - туман. В сухую погоду видимость может ухудшаться дымом, пылью или мглою.
Явления - указаны атмосферные явления, наблюдавшиеся в срок или в последний час перед сроком; фигурными скобками обозначены явления, наблюдавшиеся между сроками (за 1-3 часа до срока); квадратными скобками обозначены град или гололедные отложения с указанием их диаметра в мм.
Облачность - указаны через наклонную черту общая и нижняя облачность в баллах и высота нижней границы облаков в метрах; квадратными скобками обозначены формы облаков: Ci - перистые, Cs - перисто-слоистые, Cc - перисто-кучевые, Ac - высококучевые, As - высокослоистые, Sc - слоисто-кучевые, Ns - слоисто-дождевые, Cu - кучевые, Cb - кучево-дождевые. Подробнее классификацию облаков см. в Атласе облаков (PDF).
T - Температура воздуха - температура, измеренная на высоте 2 м над землей.
Td - Температура точки росы - температура, при понижении до которой содержащийся в воздухе водяной пар достигнет насыщения.
f - Относительная влажность воздуха - влажноcть воздуха, измеренная на высоте 2 м над землей.
Te - Эффективная температура - температура, которую ощущает одетый по сезону человек в тени. Характеристика душности погоды. При расчете учитывается влияние влажности воздуха и скорости ветра на теплоощущения человека.
Tes - Эффективная температура на солнце - температура, которую ощущает человек, с поправкой на солнечный нагрев. Характеристика знойности погоды. Зависит от высоты солнца над горизонтом, облачности и скорости ветра. Ночью, в пасмурную погоду, а также при ветре 12 м/с и более поправка равна нулю.
P - Атмосферное давление - приведенное к уровню моря атмосферное давление.
Po - Атмосферное давление - измеренное на уровне метеостанции атмосферное давление.
Tmin - Минимальная температура - минимум температуры воздуха на высоте 2 м над землей.
Tmax - Максимальная температура - максимум температуры воздуха на высоте 2 м над землей.
R - Количество осадков - Количество выпавших осадков за период времени, мм. При наведении курсора мыши на число - период времени, за который выпало указанное количество осадков.
R24 - Количество осадков - Количество выпавших осадков за 24 часа, мм.
S - Снежный покров - Высота снежного покрова, см. При наведении курсора мыши на число - состояние снежного покрова и степень покрытия местности в баллах.